This demonstration page uses our WeatherBlox Daily Observations layout. Learn more.

Left ArrowRight Arrow

39.08367, -84.50855

Hourly Observations for November 12, 2018

Temp ( °F °C ) Dew Point ( °F °C ) Humidity (%) Winds ( mph kmh ) Pressure ( in mb ) Visibility ( mi km ) Precip ( " mm )
12:53 am 00:53 Clear 29 -1.7 27 -2.8 92 92 Calm 30.32 1027 10 16 0.00 0.00
1:53 am 01:53 Clear 28 -2.2 27 -2.8 96 96 Calm 30.31 1026 9 14 0.00 0.00
2:53 am 02:53 Clear 28 -2.2 27 -2.8 96 96 Calm 30.31 1027 10 16 0.00 0.00
3:53 am 03:53 Clear 27 -2.8 26 -3.3 96 96 ENE 3 6 30.32 1027 9 14 0.00 0.00
4:53 am 04:53 Clear 27 -2.8 26 -3.3 96 96 Calm 30.32 1027 9 14 0.00 0.00
5:53 am 05:53 Clear 27 -2.8 27 -2.8 100 100 Calm 30.32 1027 10 16 0.00 0.00
6:53 am 06:53 Clear 27 -2.8 26 -3.3 96 96 NE 3 6 30.32 1027 10 16 0.00 0.00
7:53 am 07:53 Mostly Sunny 30 -1.1 28 -2.2 92 92 Calm 30.32 1027 10 16 0.00 0.00
8:53 am 08:53 Cloudy 32 0 30 -1.1 92 92 Calm 30.31 1026 10 16 0.00 0.00
9:53 am 09:53 Cloudy 34 1.1 30 -1.1 85 85 Calm 30.29 1026 10 16 0.00 0.00
10:53 am 10:53 Cloudy 37 2.8 30 -1.1 76 76 Calm 30.27 1025 10 16 0.00 0.00
11:53 am 11:53 Cloudy 40 4.4 29 -1.7 65 65 NNE 3 6 30.25 1024 10 16 0.00 0.00
12:53 pm 12:53 Cloudy 43 6.1 29 -1.7 58 58 N 7 11 30.25 1024 10 16 0.00 0.00
1:53 pm 13:53 Cloudy 42 5.6 29 -1.7 60 60 E 6 9 30.24 1024 10 16 0.00 0.00
2:53 pm 14:53 Cloudy 42 5.6 31 -0.6 65 65 NE 5 7 30.23 1024 10 16 0.00 0.00
3:53 pm 15:53 Cloudy 43 6.1 31 -0.6 63 63 Calm 30.22 1024 10 16 0.00 0.00
4:53 pm 16:53 Cloudy 43 6.1 32 0 65 65 ENE 3 6 30.19 1022 10 16 0.00 0.00
5:53 pm 17:53 Cloudy 42 5.6 32 0 68 68 Calm 30.20 1023 10 16 0.00 0.00
6:53 pm 18:53 Cloudy 42 5.6 32 0 68 68 N 3 6 30.21 1023 10 16 0.00 0.00
7:53 pm 19:53 Cloudy with Light Rain 40 4.4 34 1.1 79 79 N 3 6 30.20 1023 10 16 0.00 0.03
8:53 pm 20:53 Cloudy 39 3.9 37 2.8 93 93 Calm 30.21 1023 10 16 0.00 0.03
9:53 pm 21:53 Cloudy with Light Rain 39 3.9 37 2.8 93 93 Calm 30.22 1023 10 16 0.02 0.51
10:53 pm 22:53 Cloudy 39 3.9 38 3.3 96 96 Calm 30.22 1023 10 16 0.00 0.03
11:00 pm 23:00 Cloudy 39 3.9 38 3.3 96 96 Calm 30.21 1023 10 16 0.00 0.00
11:53 pm 23:53 Cloudy with Light Rain 39 3.9 33 0.6 79 79 N 7 11 30.22 1023 10 16 0.00 0.03

Powered by AerisWeather